Flag for Sweden Weather past 2 weeks in Borås, Sweden

Now
55 °F

Drizzle. Cloudy.


Feels Like: 53 °F
Forecast: 51 / 65 °F
Wind: 8 mph from West

Location: Gothenburg / Landvetter

Current Time: Jul 30, 2015 at 11:09:44 AM

Latest Report: Jul 30, 2015 at 10:20 AM


Visibility: N/A

Pressure: 29.50 "Hg

Humidity: 94%

Dew point: 54 °F

Location of BoråsLocation

Historic Weather in Borås — Graph

°F

Borås temperature yesterday

Maximum temperature yesterday: 61 °F (at 2:50 PM)
Minimum temperature yesterday: 52 °F (at 10:50 PM)
Average temperature yesterday: 57 °F

Past Weeks' High & Low Weather Summary

 TemperatureHumidityPressure
High68 °F (Jul 17, 2:20 PM)100% (Jul 17, 2:20 AM)30.04 "Hg (Jul 17, 2:20 AM)
Low45 °F (Jul 17, 4:50 AM)46% (Jul 17, 2:20 PM)29.33 "Hg (Jul 26, 4:20 AM)
Average56 °F82%29.71 "Hg
* Reported Jul 15 9:20 AM — Jul 30 9:50 AM, Borås, Weather by CustomWeather, © 2015

Note: Actual official high and low records may vary slightly from our data, if they occured in-between our weather recording intervals... More about our weather records

Advertising

Borås weather history for previous 24 hours

 ConditionsComfort  
Time TempWeatherWind HumidityBarometerVisibility
9:50 AM
Thu, Jul 30
57 °FRain. Cloudy.9 mph82%29.47 "HgN/A
9:20 AM57 °FMore clouds than sun.9 mph88%29.47 "HgN/A
8:50 AM55 °FScattered clouds.8 mph94%29.47 "HgN/A
8:20 AM55 °FPassing clouds.5 mph94%29.47 "HgN/A
7:50 AM54 °FPassing clouds.3 mph100%29.47 "HgN/A
7:20 AM54 °FSunny.3 mph94%29.47 "Hg10 mi
6:50 AM54 °FSunny.3 mph94%29.47 "Hg10 mi
6:20 AM52 °FSunny.3 mph94%29.47 "Hg10 mi
5:50 AM50 °FLight fog.3 mph100%29.47 "HgN/A
5:20 AM50 °FLight fog.3 mph100%29.47 "HgN/A
4:50 AM50 °FLight fog.3 mph100%29.47 "HgN/A
4:20 AM50 °FFog.3 mph100%29.47 "Hg2 mi
3:50 AM50 °FPassing clouds.5 mph100%29.47 "HgN/A
3:20 AM50 °FPassing clouds.5 mph100%29.47 "HgN/A
2:50 AM50 °FPassing clouds.6 mph100%29.47 "HgN/A
2:20 AM50 °FPassing clouds.6 mph94%29.47 "HgN/A
1:50 AM50 °FPassing clouds.8 mph100%29.47 "HgN/A
1:20 AM50 °FFog.5 mph100%29.47 "Hg6 mi
12:50 AM52 °FPassing clouds.3 mph94%29.47 "HgN/A
12:20 AM52 °FPassing clouds.3 mph100%29.47 "HgN/A
11:50 PM
Wed, Jul 29
52 °FPassing clouds.5 mph94%29.45 "HgN/A
11:20 PM52 °FPassing clouds.6 mph100%29.45 "HgN/A
10:50 PM52 °FClear.5 mph94%29.47 "Hg10 mi
10:20 PM54 °FSunny.7 mph94%29.45 "Hg10 mi
9:50 PM55 °FSunny.7 mph88%29.45 "Hg10 mi
9:20 PM55 °FSunny.7 mph88%29.45 "Hg10 mi
8:50 PM55 °FMore clouds than sun.8 mph88%29.45 "HgN/A
8:20 PM57 °FPassing clouds.10 mph82%29.45 "HgN/A
7:50 PM57 °FPassing clouds.12 mph82%29.45 "HgN/A
7:20 PM59 °FBroken clouds.8 mph82%29.45 "HgN/A
6:50 PM59 °FPassing clouds.12 mph77%29.45 "HgN/A
6:20 PM61 °FPassing clouds.13 mph72%29.45 "HgN/A
5:50 PM59 °FScattered clouds.14 mph72%29.45 "HgN/A
5:20 PM61 °FPartly sunny.12 mph72%29.45 "HgN/A
4:50 PM61 °FPartly sunny.14 mph72%29.45 "HgN/A
4:20 PM59 °FPartly sunny.13 mph77%29.45 "HgN/A
3:50 PM61 °FBroken clouds.13 mph77%29.45 "HgN/A
3:20 PM61 °FBroken clouds.12 mph77%29.45 "HgN/A
2:50 PM61 °FBroken clouds.12 mph83%29.42 "HgN/A
2:20 PM57 °FPartly sunny.10 mph88%29.42 "HgN/A
1:50 PM57 °FRain showers. Mostly cloudy.12 mph88%29.42 "HgN/A
1:20 PM57 °FPartly sunny.13 mph94%29.42 "HgN/A
12:50 PM57 °FPartly sunny.16 mph88%29.42 "HgN/A
12:20 PM57 °FPartly sunny.15 mph94%29.42 "HgN/A
11:50 AM55 °FDrizzle. Partly sunny.14 mph100%29.42 "HgN/A
11:20 AM57 °FPartly sunny.14 mph94%29.42 "HgN/A
Weather by CustomWeather, © 2015

See weather overviewHow to use our weather pages